Regional Weather Roundup
Issued by NWS

Home | Current Version | Previous Version | Text Only | Print | Product List | Glossary Off
Versions: 1 2 3 4 5 6 7 8 9 10 11 12 13 14 15 16 17 18 19 20 21 22 23 24 25 26 27 28 29 30 31 32 33 34 35 36 37 38 39 40 41 42 43 44 45 46 47 48 49 50

000
ASUS43 KLOT 182308
RWRIL

ILLINOIS REGIONAL WEATHER ROUNDUP
NATIONAL WEATHER SERVICE CHICAGO/ROMEOVILLE IL
600 PM CDT FRI AUG 18 2017

NOTE: "FAIR" INDICATES FEW OR NO CLOUDS BELOW 12,000 FEET WITH NO
SIGNIFICANT WEATHER AND/OR OBSTRUCTIONS TO VISIBILITY.

* THESE STATIONS ARE NOT UNDER NWS QUALITY CONTROL. THEY ALSO MAY NOT
  REPORT WEATHER SUCH AS PRECIPITATION OR FOG.

ILZ001-002-007-009-015-016-024-190000-
NORTHWEST ILLINOIS

CITY           SKY/WX    TMP DP  RH WIND       PRES   REMARKS
MOLINE         MOSUNNY   83  63  50 NW7       29.86F HX  84
STERLING*      MOSUNNY   78  64  61 W8        29.88R HX  80
SAVANNA*       MOSUNNY   78  59  50 NW8       29.88S HX  80
$$

ILZ003-004-008-010-011-017-018-190000-
NORTH CENTRAL ILLINOIS

CITY           SKY/WX    TMP DP  RH WIND       PRES   REMARKS
ROCKFORD       PTSUNNY   78  60  53 W10       29.88R
FREEPORT*      CLOUDY    74  60  61 NW7       29.90S
ROCHELLE*      SUNNY     77  63  62 W10       29.88R
DE KALB*       SUNNY     76  62  60 W9        29.88R
PERU*          MOSUNNY   79  64  58 W8        29.87S HX  81
$$

ILZ005-006-012>014-019>023-190000-
NORTHEAST ILLINOIS

CITY           SKY/WX    TMP DP  RH WIND       PRES   REMARKS
CHICAGO-OHARE  MOSUNNY   80  59  48 W14       29.84S HX  81
CHICAGO-MIDWAY MOSUNNY   82  59  45 W14       29.84S HX  82
AURORA         MOSUNNY   78  64  61 W9        29.87R HX  80
LANSING*       SUNNY     80  60  49 W12       29.85F HX  81
JOLIET*        SUNNY     81  63  53 W8        29.86S HX  82
WAUKEGAN       MOSUNNY   76  63  64 CALM      29.84S
DUPAGE AIRPORT SUNNY     78  62  57 W13G20    29.85S HX  80
KANKAKEE*      SUNNY     78  64  60 W7        29.88S HX  80
WHEELING       SUNNY     79  62  56 W13       29.85S HX  80
MORRIS*        SUNNY     79  64  58 W8        29.85S HX  81
ROMEOVILLE*    SUNNY     78  61  54 W12       29.86S HX  80
NORTHERLY ISL    N/A     82  53  36 W10         N/A  HX  81
$$

LMZ740>746-190000-
SOUTHERN LAKE MICHIGAN

STATION/POSITION SKY/WX   TEMP    WIND        PRES    VSBY  WAVE
                          AIR SEA DIR/SP/G                  HT/PER
                          (F)     (DEG/KT/KT) (MB)    (MI)  (FT/S)
SOUTHERN BUOY              71 71  260/  2/  4 1010.5          2/ 5
WILMETTE HARBOR            76 73  300/  8/ 10   N/A           1/ 3
HARRISON CRIB              75      60/  7/  9   N/A
CALUMET HARBOR             81     230/  8/ 11 1009.8F
BURNS HARBOR               79     240/  7/  9 1010.8F
MICHIGAN CITY              78     360/  1/  2   N/A
MICHIGAN CITY 6N           74 76   50/  4/  8   N/A           2/ 5
ST. JOSEPH                 72 74   80/  2/  4 1010.8          2/ 5
$$

ILZ025>027-034>036-040-047-049-050-058-095>099-190000-
WEST-CENTRAL ILLINOIS

CITY           SKY/WX    TMP DP  RH WIND       PRES   REMARKS
QUINCY         SUNNY     84  66  54 S10       29.87F HX  86
GALESBURG*     SUNNY     81  67  61 SW6       29.89R HX  83
MACOMB*        MOSUNNY   84  68  59 SW5       29.88S HX  87
JACKSONVILLE*  MOSUNNY   82  65  56 S9        29.89S HX  83
PITTSFIELD*    MOSUNNY   84  67  57 SW9       29.90F HX  86
$$

ILZ028>032-037-038-041>044-048-051>054-059>061-190000-
CENTRAL ILLINOIS

CITY           SKY/WX    TMP DP  RH WIND       PRES   REMARKS
PONTIAC        CLOUDY    81  68  63 W5        29.88S HX  84
BLOOMINGTON    CLOUDY    80  66  62 SW6       29.90S HX  82
DECATUR        SUNNY     82  65  56 S13       29.89F HX  84
PEORIA         MOSUNNY   82  65  56 SW7       29.87F HX  84
LACON*         MOSUNNY   81  64  55 W6        29.86S HX  82
LINCOLN*       CLOUDY    85  67  54 SW6       29.89R HX  88
SPRINGFIELD    MOSUNNY   85  67  54 SW8       29.89S HX  87
TAYLORVILLE    SUNNY     82  67  60 S7        29.90S HX  85
$$

ILZ033-039-045-046-055>057-062-063-190000-
EAST-CENTRAL ILLINOIS

CITY           SKY/WX    TMP DP  RH WIND       PRES   REMARKS
CHAMPAIGN      SUNNY     82  65  56 SW8       29.90F HX  84
RANTOUL*       CLOUDY    83  65  53 SW8       29.89S HX  85
MATTOON        SUNNY     81  67  62 S8        29.90F HX  83
PARIS*         SUNNY     82  64  54 SW7       29.91F HX  83
$$

ILZ079-100>102-190000-
SOUTHWEST ILLINOIS

CITY           SKY/WX    TMP DP  RH WIND       PRES   REMARKS
ALTON          PTSUNNY   82  70  65 W6        29.91F HX  86
BELLEVILLE     CLOUDY    83  67  59 SW3       29.93F HX  86
CAHOKIA*       MOSUNNY   85  65  51 S3        29.91F HX  86
SPARTA*        CLOUDY    82  65  55 SW3       29.95S HX  84
$$

ILZ064>066-069>071-074>076-080>082-084>086-088>090-092>094-190000-
SOUTH-CENTRAL ILLINOIS

CITY           SKY/WX    TMP DP  RH WIND       PRES   REMARKS
CARBONDALE     CLOUDY    82  68  62 CALM      29.94F HX  85
CAIRO*         SUNNY     86  65  50 CALM      29.94F HX  87
EFFINGHAM*     SUNNY     82  67  58 S8        29.94S HX  85
MARION         PTSUNNY   84  64  51 SW9       29.95F HX  86
MT. VERNON       N/A     83  67  58 SW7       29.94S HX  85
CENTRALIA*     CLOUDY    82  69  64 CALM      29.92F HX  86
SALEM*         CLOUDY    84  66  54 SW3       29.93S HX  86
METROPOLIS*    SUNNY     86  67  53 SW5       29.95F HX  89
$$

ILZ067-068-072-073-078-083-087-091-190000-
SOUTHEAST ILLINOIS

CITY           SKY/WX    TMP DP  RH WIND       PRES   REMARKS
LAWRENCEVILLE  SUNNY     86  63  45 W7        29.92F HX  87
FLORA*         SUNNY     83  65  53 W6        29.93S HX  84
FAIRFIELD*     SUNNY     85  62  46 SW3       29.92S HX  85
HARRISBURG*    SUNNY     85  65  51 W6        29.95F HX  86
ROBINSON*      MOSUNNY   81  65  57 W8        29.92F HX  83
CARMI*         SUNNY     81  71  71 SW5       29.94S HX  84
$$

ABBREVIATIONS USED IN REMARKS
   TC - TEMPERATURE IN CELSIUS
  WCI - WIND CHILL INDEX
   HX - HEAT INDEX
  VSB - VISIBILITY
$$




USA.gov is the U.S. government's official web portal to all federal, state and local government web resources and services.